TimeEDT,TemperatureF,Dew PointF,Humidity,Sea Level PressureIn,VisibilityMPH,Wind Direction,Wind SpeedMPH,Gust SpeedMPH,PrecipitationIn,Events,Conditions,WindDirDegrees,DateUTC
12:53 AM,48.9,33.1,54,29.77,10.0,North,9.2,-,N/A,,Clear,350,2013-06-16 04:53:00
1:53 AM,46.9,30.0,52,29.79,10.0,NW,5.8,-,N/A,,Clear,320,2013-06-16 05:53:00
2:53 AM,46.0,30.0,54,29.79,10.0,NW,4.6,-,N/A,,Clear,320,2013-06-16 06:53:00
3:53 AM,45.0,28.0,52,29.80,10.0,NW,6.9,-,N/A,,Clear,310,2013-06-16 07:53:00
4:53 AM,42.1,30.9,65,29.82,10.0,West,9.2,-,N/A,,Clear,270,2013-06-16 08:53:00
5:53 AM,42.1,33.1,70,29.83,10.0,WNW,4.6,-,N/A,,Clear,290,2013-06-16 09:53:00
6:53 AM,48.0,32.0,54,29.85,10.0,WNW,6.9,-,N/A,,Clear,300,2013-06-16 10:53:00
7:53 AM,50.0,33.1,52,29.87,10.0,WNW,10.4,-,N/A,,Clear,300,2013-06-16 11:53:00
8:53 AM,53.1,30.9,43,29.86,10.0,NW,12.7,17.3,N/A,,Clear,320,2013-06-16 12:53:00
9:53 AM,54.0,32.0,43,29.86,10.0,West,9.2,-,N/A,,Clear,280,2013-06-16 13:53:00
10:53 AM,55.0,30.9,40,29.86,10.0,WSW,5.8,-,N/A,,Clear,250,2013-06-16 14:53:00
11:53 AM,60.1,30.9,33,29.83,10.0,WSW,8.1,-,N/A,,Clear,250,2013-06-16 15:53:00
12:53 PM,60.1,30.9,33,29.82,10.0,West,5.8,-,N/A,,Clear,280,2013-06-16 16:53:00
1:53 PM,61.0,32.0,34,29.81,10.0,West,3.5,-,N/A,,Scattered Clouds,260,2013-06-16 17:53:00
2:53 PM,61.0,35.1,38,29.79,10.0,North,3.5,-,0.00,Rain,Light Rain,360,2013-06-16 18:53:00
3:53 PM,59.0,36.0,42,29.81,10.0,SSW,5.8,-,0.00,,Overcast,200,2013-06-16 19:53:00
4:53 PM,53.1,42.1,66,29.83,10.0,West,5.8,-,0.00,Rain,Light Rain,270,2013-06-16 20:53:00
5:53 PM,51.1,46.9,86,29.81,8.0,Calm,Calm,-,0.07,Rain,Light Rain,0,2013-06-16 21:53:00
6:53 PM,50.0,48.0,93,29.80,9.0,Calm,Calm,-,0.07,Rain,Light Rain,0,2013-06-16 22:53:00
7:53 PM,48.9,46.0,90,29.80,7.0,East,5.8,-,0.05,Rain,Light Rain,90,2013-06-16 23:53:00
8:53 PM,48.0,46.0,93,29.81,6.0,East,5.8,-,0.10,Rain,Rain,90,2013-06-17 00:53:00
9:46 PM,46.4,46.4,100,29.77,6.0,East,9.2,-,0.06,Rain,Light Rain,90,2013-06-17 01:46:00
9:53 PM,46.9,46.9,100,29.77,6.0,East,6.9,-,0.06,Rain,Light Rain,90,2013-06-17 01:53:00
10:05 PM,46.4,46.4,100,29.77,4.0,East,4.6,-,0.00,,Overcast,80,2013-06-17 02:05:00
10:12 PM,46.4,46.4,100,29.78,6.0,East,3.5,-,0.00,,Overcast,100,2013-06-17 02:12:00
10:53 PM,48.0,46.9,96,29.78,6.0,NNE,3.5,-,0.00,Rain,Light Rain,30,2013-06-17 02:53:00
11:04 PM,48.2,46.4,93,29.77,1.8,North,4.6,-,0.00,Rain,Light Rain,10,2013-06-17 03:04:00
11:12 PM,48.2,46.4,93,29.78,1.8,NNE,3.5,-,0.00,,Overcast,20,2013-06-17 03:12:00
11:15 PM,48.2,46.4,93,29.78,3.0,North,3.5,-,0.00,Rain,Light Rain,360,2013-06-17 03:15:00
11:32 PM,48.2,46.4,93,29.77,8.0,ENE,4.6,-,0.01,Rain,Light Rain,70,2013-06-17 03:32:00
11:53 PM,48.0,46.9,96,29.77,7.0,ENE,3.5,-,0.01,Rain,Light Rain,60,2013-06-17 03:53:00